Location: Domicella
(40.8833°N, 14.5833°E)
Time: 11:37:12
(UTC+00:00)

Cosmos 1375 Rocket - Pass Details

Date: 15 May 2026
Orbit: 949 x 1017 km, 65.8° (Epoch: 7 June)

Event Time Altitude Azimuth Distance (km) Brightness Sun altitude
Rises 19:37:26 0° 205° (SSW) 3,670 7.3 -14.2°
Reaches altitude 10° 19:39:58 10° 204° (SSW) 2,736 6.7 -14.5°
Maximum altitude 19:46:24 81° 119° (ESE) 1,016 4.5 -15.4°
Drops below altitude 10° 19:52:58 10° 33° (NNE) 2,794 7.0 -16.3°
Sets 19:55:35 0° 33° (NNE) 3,754 7.7 -16.7°
